This demonstration page uses our WeatherBlox Daily Observations layout. Learn more.

Left ArrowRight Arrow

39.29038, -76.61219

Hourly Observations for May 8, 2021

Temp ( °F °C ) Dew Point ( °F °C ) Humidity (%) Winds ( mph kmh ) Pressure ( in mb ) Visibility ( mi km ) Precip ( " mm )
12:54 am 00:54 Partly Cloudy 46 7.8 44 6.7 93 93 WSW 5 7 29.87 1012 10 16 N/A
1:54 am 01:54 Mostly Clear 46 7.8 44 6.7 93 93 WSW 6 9 29.87 1012 10 16 N/A
2:54 am 02:54 Mostly Clear 44 6.7 42 5.6 93 93 W 7 11 29.86 1011 10 16 N/A
3:54 am 03:54 Mostly Clear 42 5.6 40 4.4 92 92 W 5 7 29.86 1011 10 16 N/A
4:54 am 04:54 Partly Cloudy 43 6.1 40 4.4 89 89 WSW 8 13 29.86 1011 10 16 N/A
5:54 am 05:54 Mostly Cloudy 42 5.6 39 3.9 89 89 W 3 6 29.87 1012 10 16 N/A
6:54 am 06:54 Sunny 43 6 N/A N/A W 5 7 29.88 1012 10 16 N/A
7:54 am 07:54 Cloudy with Light Rain 44 6.7 42 5.6 93 93 W 8 13 29.91 1013 6 10 0.02 0.51
8:54 am 08:54 Cloudy 46 7.8 43 6.1 89 89 VRB 6 9 29.91 1013 10 16 0.08 2.03
9:54 am 09:54 Cloudy 47 8.3 44 6.7 90 90 NW 7 11 29.92 1013 10 16 0.01 0.25
10:40 am 10:40 Cloudy 47 8.3 44 6.7 90 90 NW 9 15 29.93 1014 10 16 N/A
10:54 am 10:54 Cloudy 47 8.3 44 6.7 90 90 NW 7 11 29.93 1013 10 16 N/A
11:13 am 11:13 Mostly Cloudy 51 10.6 44 6.7 77 77 WNW 8 13 29.93 1014 10 16 N/A
11:54 am 11:54 Partly Cloudy 51 10.6 44 6.7 77 77 WNW 14 22 29.93 1013 10 16 N/A
12:54 pm 12:54 Mostly Cloudy 55 12.8 40 4.4 57 57 WNW 14 22 29.91 1013 10 16 N/A
1:26 pm 13:26 Mostly Cloudy with Thunderstorms 55 12.8 39 3.9 55 55 WNW 17 28 29.91 1013 10 16 N/A
1:33 pm 13:33 Mostly Cloudy with Strong Thunderstorms 47 8.3 39 3.9 74 74 W 15 24 29.93 1014 2 3 0.07 1.78
1:43 pm 13:43 Mostly Cloudy with Thunderstorms 53 11.7 45 7.2 74 74 W 12 19 29.91 1013 3 5 0.10 2.54
1:54 pm 13:54 Mostly Cloudy with Nearby Thunderstorms 55 12.8 45 7.2 69 69 W 8 13 29.91 1013 10 16 0.10 2.54
2:02 pm 14:02 Partly Cloudy 56 13.3 44 6.7 65 65 WSW 7 11 29.91 1013 10 16 N/A
2:49 pm 14:49 Cloudy with Light Rain 48 9 37 3 66 66 NW 20 31 29.95 1014 7 11 0.01 0.25
2:54 pm 14:54 Mostly Cloudy with Thunderstorms 48 8.9 38 3.3 68 68 W 15 24 29.95 1014 5 8 0.02 0.51
3:16 pm 15:16 Cloudy 50 10 43 6.1 77 77 NW 8 13 29.96 1015 10 16 0.02 0.51
3:54 pm 15:54 Mostly Cloudy 56 13.3 44 6.7 65 65 W 8 13 29.93 1014 10 16 0.03 0.76
4:54 pm 16:54 Mostly Cloudy 58 14.4 38 3.3 48 48 NNW 13 20 29.94 1014 10 16 N/A
5:54 pm 17:54 Partly Cloudy 59 15 38 3.3 46 46 NW 12 19 29.96 1015 10 16 N/A
6:54 pm 18:54 Partly Cloudy 58 14.4 36 2.2 44 44 WNW 12 19 29.98 1015 10 16 N/A
7:54 pm 19:54 Mostly Sunny 54 12.2 34 1.1 47 47 WNW 8 13 30.01 1016 10 16 N/A
8:54 pm 20:54 Mostly Clear 52 11.1 35 1.7 53 53 W 3 6 30.04 1017 10 16 N/A
9:54 pm 21:54 Clear 44 6.7 38 3.3 79 79 W 6 9 30.07 1018 10 16 N/A
10:54 pm 22:54 Mostly Clear 46 7.8 36 2.2 68 68 W 6 9 30.09 1019 10 16 N/A
11:54 pm 23:54 Partly Cloudy 44 6.7 37 2.8 76 76 W 5 7 30.09 1019 10 16 N/A

Powered by AerisWeather